CZ-4B R/B (49493 NORAD) Tracking and Keplerian Element Data
This shows tracking and keplerian element data for the satellite.
Feedback or suggestion? Click here.
Element | Value |
Catalog | 49493 |
Name | CZ-4B R/B |
Epoch Orbit | 480 |
Epoch Day | 354.56833297 |
Epoch Year | 2021 |
RAAN | 46.8279 |
Inclination | 97.3968 |
Eccentricity | 0.0173699 |
Argument of Perigee | 30.1439 |
Mean Anonmoly | 72.4326 |
Mean Motion | 15.82922747 |
Decay Rate | 0.00405141 |
L1 | 1 49493U 21107B 21354.56833297 .00405141 21908-5 57906-3 0 9998 |
L2 | 2 49493 97.3968 46.8279 0173699 30.1439 72.4326 15.82922747 4807 |
Live tracking and technical data element details for CZ-4B R/B (NORAD 49493). CZ-4B R/B can be tracked NOW for your location showing map with azimuth and elevation plus other details from your city location.
Track the satellite on the map from your city or location and see movement details for azimuth, elevation, latitude, longitude, range, height, and movement on the map or in text.
IsCatalogInMostPopularTable: catalog: 49493, numindb: 24
Update: records affected: 1
GetName: 49493 CZ-4B R/B
Hit Count: updated at: Sun, 22 May 2022 03:44:18 GMT